Location: La Bastide
(43.1661°N, 1.2755°E)
Time: 07:49:48
(UTC+00:00)

Cosmos 1953 Rocket - Pass Details

Date: 26 March 2026
Orbit: 599 x 626 km, 82.5° (Epoch: 18 April)

Event Time Altitude Azimuth Distance (km) Brightness Sun altitude
Rises 19:01:44 0° 243° (WSW) 2,845 7.8 -9.4°
Reaches altitude 10° 19:06:04 10° 285° (WNW) 1,956 7.8 -10.2°
Maximum altitude 19:06:47 10° 294° (WNW) 1,936 7.6 -10.3°
Drops below altitude 10° 19:07:31 10° 304° (NW) 1,961 7.4 -10.4°
Sets 19:11:55 0° 346° (NNW) 2,882 7.4 -11.2°
